Change the Weather History Date:

Monday, October 8, 2012

  Actual Average Record
Temperature  
Mean Temperature 49 °F 48 °F  
Max Temperature 56 °F 60 °F 88 °F (1936)
Min Temperature 41 °F 36 °F 12 °F (1895)
Degree Days  
Heating Degree Days 16 17  
Month to date heating degree days 168 126  
Since 1 July heating degree days 432 444  
Cooling Degree Days 0 0  
Month to date cooling degree days 0 0  
Year to date cooling degree days 575 445  
Moisture  
Dew Point 36 °F    
Average Humidity 62    
Maximum Humidity 83    
Minimum Humidity 41    
Precipitation  
Precipitation T in 0.05 in 0.77 in (1959)
Month to date precipitation 0.26 0.47  
Year to date precipitation 11.27 16.66  
Sea Level Pressure  
Sea Level Pressure 29.64 in    
Wind  
Wind Speed 15 mph (West)    
Max Wind Speed 33 mph    
Max Gust Speed 43 mph    
Visibility 10 miles    
Events      
T = Trace of Precipitation, MM = Missing Value Source: NWS Daily Summary

Daily Weather History Graph

Daily Weather History Graph

Search for Another Location

Airport or City:

Trip Planner

Search our weather history database for the weather conditions in past years. The results will help you decide how hot, cold, wet, or windy it might be!

Date:

Astronomy

Oct. 08, 2012 Rise Set
Actual Time 7:43 AM CDT 6:59 PM CDT
Civil Twilight 7:13 AM CDT 7:30 PM CDT
Nautical Twilight 6:38 AM CDT 8:05 PM CDT
Astronomical Twilight 6:02 AM CDT 8:40 PM CDT
Moon No Moon Rise 3:13 PM CDT (10/8)
Length of Visible Light 12h 16m
Length of Day
11h 15m
Last Quarter, 46% of the Moon is Illuminated
Oct 8
Last Quarter
Oct 15
New
Oct 21
First Quarter
Oct 29
Full
Nov 6
Last Quarter

Hourly Weather History & Observations

Time (CDT) Temp. Windchill Dew Point Humidity Pressure Visibility Wind Dir Wind Speed Gust Speed Precip Events Conditions
12:56 AM 46.0 °F 41.4 °F 37.0 °F 71% 29.74 in 10.0 mi West 9.2 mph - N/A   Overcast
1:56 AM 45.0 °F 42.6 °F 39.0 °F 80% 29.71 in 10.0 mi West 4.6 mph - N/A   Overcast
2:56 AM 45.0 °F 41.8 °F 39.0 °F 80% 29.69 in 10.0 mi SW 5.8 mph - N/A   Overcast
3:56 AM 44.1 °F 40.8 °F 37.9 °F 79% 29.64 in 10.0 mi South 5.8 mph - N/A   Overcast
4:56 AM 44.1 °F 39.5 °F 37.9 °F 79% 29.61 in 10.0 mi South 8.1 mph - N/A   Overcast
5:56 AM 45.0 °F 40.1 °F 37.9 °F 76% 29.58 in 10.0 mi South 9.2 mph - N/A   Overcast
6:56 AM 46.0 °F 41.0 °F 37.9 °F 73% 29.55 in 10.0 mi South 10.4 mph - N/A   Overcast
7:56 AM 46.9 °F - 37.0 °F 68% 29.54 in 10.0 mi SW 6.9 mph - N/A   Overcast
8:56 AM 51.1 °F - 39.0 °F 63% 29.54 in 10.0 mi West 15.0 mph 21.9 mph N/A   Overcast
9:56 AM 50.0 °F - 41.0 °F 71% 29.56 in 10.0 mi NW 23.0 mph 33.4 mph 0.00 in   Scattered Clouds
10:56 AM 50.0 °F - 39.0 °F 66% 29.57 in 10.0 mi NW 24.2 mph 35.7 mph N/A   Partly Cloudy
11:56 AM 52.0 °F - 39.9 °F 63% 29.59 in 10.0 mi NW 27.6 mph 42.6 mph N/A   Partly Cloudy
12:56 PM 54.0 °F - 39.0 °F 57% 29.61 in 10.0 mi NW 28.8 mph 38.0 mph N/A   Mostly Cloudy
1:56 PM 52.0 °F - 37.0 °F 57% 29.63 in 10.0 mi NW 23.0 mph 32.2 mph N/A   Overcast
3:56 PM 55.9 °F - 33.1 °F 42% 29.64 in 10.0 mi NW 24.2 mph 29.9 mph N/A   Partly Cloudy
4:56 PM 53.1 °F - 30.0 °F 41% 29.66 in 10.0 mi NW 27.6 mph 33.4 mph N/A   Mostly Cloudy
5:56 PM 52.0 °F - 28.9 °F 41% 29.67 in 10.0 mi WNW 15.0 mph 21.9 mph N/A   Clear
6:56 PM 50.0 °F - 30.0 °F 46% 29.69 in 10.0 mi NW 15.0 mph - N/A   Mostly Cloudy
9:56 PM 42.1 °F 37.1 °F 30.9 °F 65% 29.74 in 10.0 mi West 8.1 mph - N/A   Clear
10:56 PM 43.0 °F 37.2 °F 30.0 °F 60% 29.73 in 10.0 mi West 10.4 mph - N/A   Mostly Cloudy
11:56 PM 43.0 °F 36.8 °F 30.0 °F 60% 29.74 in 10.0 mi WNW 11.5 mph - N/A   Overcast